Weather reports worldwide

Advertisment
Lugo/Rozas, Spain (8008): temperature & dewpoint: 06.12.2018 00:00:00 - 12.12.2018 00:00:00 (CET)Lugo/Rozas, Spain (8008): wind speed: 06.12.2018 00:00:00 - 12.12.2018 00:00:00 (CET)Lugo/Rozas, Spain (8008): wind direction: 06.12.2018 00:00:00 - 12.12.2018 00:00:00 (CET)Lugo/Rozas, Spain (8008): reduced air pressure: 06.12.2018 00:00:00 - 12.12.2018 00:00:00 (CET)Lugo/Rozas, Spain (8008): visibility: 06.12.2018 00:00:00 - 12.12.2018 00:00:00 (CET)Lugo/Rozas, Spain (8008): precipitation: 06.12.2018 00:00:00 - 12.12.2018 00:00:00 (CET)
Date & Time tt [°C] td [°C] ff [km/h] ff [kn] dd ppp [hPa] vv [km] rr [mm]
12.12.2018 00:00:00 8,7 7,8 2 1 SE 1024,7 15 0,0
11.12.2018 23:00:00 9,3 8,4 2 1 S 1024,9 15 0,2
11.12.2018 22:00:00 9,2 8,3 4 2 N 1025,2 10 -
11.12.2018 21:00:00 10,6 9,8 5 3 WNW 1024,6 4,0 0,2
11.12.2018 20:00:00 11,5 9,2 9 5 WSW 1023,8 20 0,0
11.12.2018 19:00:00 11,5 8,7 8 4 SW 1023,7 20 -
11.12.2018 18:00:00 12,0 8,3 8 4 WSW 1023,3 20 0,0
11.12.2018 17:00:00 12,8 7,9 4 2 W 1022,6 20 0,0
11.12.2018 16:00:00 13,6 5,7 8 4 SW 1021,5 20 -
11.12.2018 15:00:00 13,7 4,8 9 5 SSW 1021,3 20 0,0
11.12.2018 14:00:00 10,9 8,3 2 1 NNE 1022,3 20 0,0
11.12.2018 13:00:00 9,1 7,5 4 2 NNE 1023,2 25 -
11.12.2018 12:00:00 5,3 4,7 4 2 N 1024,7 20 0,0
11.12.2018 11:00:00 2,7 2,3 4 2 W 1025,4 20 0,0
11.12.2018 10:00:00 1,0 0,6 2 1 WSW 1024,9 25 -
11.12.2018 09:00:00 0,1 -0,5 2 1 SSW 1024,7 18 0,0
11.12.2018 08:00:00 0,3 -0,1 4 2 SSE 1024,5 18 0,0
11.12.2018 07:00:00 0,3 0,0 2 1 NE 1024,4 20 -
11.12.2018 06:00:00 0,2 -0,5 0 0 N 1024,8 0,7 0,0
11.12.2018 05:00:00 0,6 -0,3 2 1 SW 1024,8 11 0,0
11.12.2018 04:00:00 1,4 0,7 0 0 N 1025,2 0,3 -
11.12.2018 03:00:00 1,6 1,0 0 0 N 1025,8 3,6 0,0
11.12.2018 02:00:00 2,0 1,1 0 0 N 1026,3 12 0,0
11.12.2018 01:00:00 2,5 1,6 2 1 ESE 1027,0 2,4 -
11.12.2018 00:00:00 3,4 2,2 2 1 W 1027,1 8 0,0
10.12.2018 23:00:00 4,1 3,2 2 1 SSW 1027,2 9 0,0
10.12.2018 22:00:00 4,3 3,4 4 2 S 1027,6 8 -
10.12.2018 21:00:00 5,1 4,1 4 2 SSE 1027,6 6 0,0
10.12.2018 20:00:00 5,9 4,9 2 1 S 1027,8 6 0,0
10.12.2018 19:00:00 7,1 5,6 4 2 SSE 1027,9 9 -
10.12.2018 18:00:00 9,4 7,0 2 1 SSE 1027,8 20 0,0
10.12.2018 17:00:00 11,1 8,1 2 1 N 1027,5 20 0,0
10.12.2018 16:00:00 11,9 8,4 2 1 E 1027,6 20 -
10.12.2018 15:00:00 11,8 8,3 5 3 WSW 1028,4 20 0,0
10.12.2018 14:00:00 10,1 7,2 5 3 W 1029,7 20 0,0
10.12.2018 13:00:00 7,7 6,3 4 2 WNW 1031,4 15 -
10.12.2018 12:00:00 5,4 4,5 2 1 NW 1033,0 20 0,0
10.12.2018 11:00:00 4,6 3,9 4 2 W 1033,6 20 0,0
10.12.2018 10:00:00 3,1 2,4 2 1 SE 1034,0 0,8 -
10.12.2018 09:00:00 1,9 1,3 2 1 S 1034,1 0,4 0,0
10.12.2018 08:00:00 3,1 2,7 2 1 SW 1034,0 0,2 0,0
10.12.2018 07:00:00 3,4 3,1 4 2 SW 1034,1 0,1 -
10.12.2018 06:00:00 3,5 3,1 4 2 SW 1034,6 0,3 0,0
10.12.2018 05:00:00 3,8 3,4 2 1 ESE 1034,8 3,2 0,0
10.12.2018 04:00:00 4,1 3,7 2 1 S 1035,3 2,5 -
10.12.2018 03:00:00 4,5 4,1 5 3 WSW 1035,1 0,2 0,0
10.12.2018 02:00:00 5,2 4,9 2 1 S 1035,4 0,2 0,0
10.12.2018 01:00:00 4,7 4,3 2 1 SSE 1035,9 7 -
10.12.2018 00:00:00 4,1 3,2 2 1 SSW 1036,1 0,9 0,0
09.12.2018 23:00:00 4,9 3,6 2 1 W 1036,1 3,6 0,0
09.12.2018 22:00:00 6,3 5,1 2 1 ENE 1035,5 2,4 -
09.12.2018 21:00:00 6,9 5,7 2 1 ENE 1035,5 2,9 0,0
09.12.2018 20:00:00 8,1 6,1 2 1 E 1034,9 - 0,0
09.12.2018 19:00:00 9,9 7,8 2 1 ENE 1034,1 6 -
09.12.2018 18:00:00 12,6 9,1 5 3 NE 1033,3 20 0,0
09.12.2018 17:00:00 15,5 9,4 2 1 N 1032,1 19 0,0
09.12.2018 16:00:00 15,9 9,3 2 1 N 1031,6 16 -
09.12.2018 15:00:00 16,2 8,9 4 2 W 1031,7 20 0,0
09.12.2018 14:00:00 15,8 9,2 8 4 SW 1032,0 20 0,0
09.12.2018 13:00:00 14,5 9,5 5 3 WSW 1033,0 20 -
09.12.2018 12:00:00 12,8 9,1 4 2 WSW 1034,2 20 0,0
09.12.2018 11:00:00 11,6 9,5 4 2 SSW 1034,4 20 0,0
09.12.2018 10:00:00 10,1 8,9 5 3 SW 1034,2 20 -
09.12.2018 09:00:00 9,3 7,9 5 3 SW 1033,9 20 0,0
09.12.2018 08:00:00 10,6 9,0 4 2 SSW 1033,4 20 0,0
09.12.2018 07:00:00 11,0 9,4 4 2 SW 1032,8 20 -
09.12.2018 06:00:00 10,7 9,5 4 2 SSW 1032,9 20 0,0
09.12.2018 05:00:00 10,8 9,6 8 4 SW 1033,0 20 0,0
09.12.2018 04:00:00 10,5 9,3 5 3 SSW 1033,1 20 -
09.12.2018 03:00:00 10,4 9,3 4 2 SSW 1032,7 20 0,0
09.12.2018 02:00:00 10,5 8,9 5 3 S 1032,6 20 0,0
09.12.2018 01:00:00 10,8 9,2 8 4 SSW 1032,8 20 -
09.12.2018 00:00:00 10,5 9,1 11 6 SSW 1032,6 20 0,0
08.12.2018 23:00:00 10,2 8,8 11 6 SSW 1032,7 20 0,0
08.12.2018 22:00:00 10,4 8,7 11 6 SSW 1032,4 20 -
08.12.2018 21:00:00 10,2 8,6 9 5 SSW 1032,0 20 0,0
08.12.2018 20:00:00 10,7 8,3 11 6 SW 1032,1 19 0,0
08.12.2018 19:00:00 10,3 7,7 5 3 WSW 1031,8 20 -
08.12.2018 18:00:00 10,7 7,6 5 3 SW 1031,7 20 0,0
08.12.2018 17:00:00 12,1 7,4 13 7 WSW 1031,1 20 0,0
08.12.2018 16:00:00 13,1 8,2 11 6 W 1030,6 20 -
08.12.2018 15:00:00 12,5 7,4 9 5 SW 1031,1 20 0,0
08.12.2018 14:00:00 12,2 6,7 13 7 WSW 1031,7 20 0,0
08.12.2018 13:00:00 11,3 6,6 11 6 WSW 1032,2 20 -
08.12.2018 12:00:00 10,4 6,2 11 6 SSW 1032,7 20 0,0
08.12.2018 11:00:00 8,4 5,7 8 4 S 1032,9 20 0,0
08.12.2018 10:00:00 7,1 5,2 8 4 S 1033,1 19 -
08.12.2018 09:00:00 6,7 5,2 5 3 SSW 1033,7 18 0,0
08.12.2018 08:00:00 7,0 5,5 8 4 S 1033,1 17 0,0
08.12.2018 07:00:00 6,6 5,7 8 4 S 1032,9 6 -
08.12.2018 06:00:00 6,1 5,1 11 6 SW 1032,9 1,1 0,0
08.12.2018 05:00:00 6,1 5,1 8 4 SSW 1032,6 2,0 0,0
08.12.2018 04:00:00 6,2 5,3 8 4 SW 1033,0 1,7 -
08.12.2018 03:00:00 6,3 5,6 8 4 SW 1032,7 1,5 0,0
08.12.2018 02:00:00 6,1 5,7 5 3 SSW 1032,6 3,9 0,0
08.12.2018 01:00:00 5,2 4,8 5 3 SW 1033,0 4,3 -
08.12.2018 00:00:00 4,7 4,0 4 2 S 1033,0 2,1 0,0
07.12.2018 23:00:00 6,0 5,0 2 1 S 1032,7 0,7 0,0
07.12.2018 22:00:00 6,8 6,2 5 3 WSW 1032,7 3,5 -
07.12.2018 21:00:00 7,5 6,4 4 2 SW 1032,2 3,7 0,0
07.12.2018 20:00:00 8,5 7,4 4 2 SSW 1031,6 - 0,0
07.12.2018 19:00:00 9,4 8,6 4 2 SW 1030,9 4,0 -
07.12.2018 18:00:00 9,7 8,8 4 2 SW 1030,4 6 0,0
07.12.2018 17:00:00 9,8 8,9 5 3 W 1030,1 - 0,2
07.12.2018 16:00:00 11,3 10,7 9 5 WNW 1028,8 - -
07.12.2018 15:00:00 11,4 10,6 13 7 SW 1028,2 10 0,2
07.12.2018 14:00:00 11,1 10,0 13 7 SW 1028,2 18 0,0
07.12.2018 13:00:00 10,6 9,4 15 8 SSW 1028,3 15 -
07.12.2018 12:00:00 10,3 8,6 13 7 SW 1028,8 20 0,0
07.12.2018 11:00:00 10,3 8,1 15 8 SSW 1028,5 20 0,0
07.12.2018 10:00:00 9,2 7,6 13 7 S 1028,6 20 -
07.12.2018 09:00:00 9,0 7,1 8 4 S 1029,2 17 0,0
07.12.2018 08:00:00 9,3 7,7 9 5 SSW 1028,9 17 0,0
07.12.2018 07:00:00 9,3 7,7 8 4 S 1029,0 15 -
07.12.2018 06:00:00 8,6 6,9 9 5 SSW 1029,3 19 0,0
07.12.2018 05:00:00 6,9 6,3 9 5 SSW 1029,2 20 0,0
07.12.2018 04:00:00 6,1 5,8 11 6 WSW 1029,6 20 -
07.12.2018 03:00:00 5,7 4,3 2 1 N 1029,6 9 0,0
07.12.2018 02:00:00 7,3 5,4 2 1 SW 1029,5 19 0,0
07.12.2018 01:00:00 6,0 5,1 2 1 WSW 1030,4 10 -
07.12.2018 00:00:00 7,6 6,1 2 1 SSW 1030,2 20 0,0
06.12.2018 23:00:00 8,8 7,1 4 2 S 1030,3 20 0,0
06.12.2018 22:00:00 8,9 7,2 5 3 S 1030,4 20 -
06.12.2018 21:00:00 7,7 6,8 4 2 SSW 1031,1 20 0,0
06.12.2018 20:00:00 7,1 5,7 4 2 SW 1031,4 19 0,0
06.12.2018 19:00:00 8,6 6,2 4 2 SSW 1031,2 20 -
06.12.2018 18:00:00 11,5 7,0 4 2 SW 1030,4 20 0,0
06.12.2018 17:00:00 14,2 7,5 9 5 W 1029,8 20 0,0
06.12.2018 16:00:00 14,8 7,3 11 6 W 1029,7 20 -
06.12.2018 15:00:00 14,6 7,6 15 8 W 1030,3 20 0,0
06.12.2018 14:00:00 14,5 8,0 13 7 W 1030,7 20 0,0
06.12.2018 13:00:00 13,0 8,5 11 6 SW 1031,3 20 -
06.12.2018 12:00:00 13,0 9,4 8 4 SW 1031,9 20 0,0
06.12.2018 11:00:00 11,2 9,1 11 6 SW 1031,9 20 0,0
06.12.2018 10:00:00 9,4 8,2 8 4 SW 1031,8 20 -
06.12.2018 09:00:00 9,2 8,3 11 6 SW 1031,3 20 0,0
06.12.2018 08:00:00 8,9 7,8 4 2 SSW 1030,7 20 0,0
06.12.2018 07:00:00 9,1 8,3 9 5 SW 1030,5 19 -
06.12.2018 06:00:00 9,2 8,4 5 3 SW 1030,2 12 0,0
06.12.2018 05:00:00 10,0 9,1 5 3 SSW 1029,8 20 0,0
06.12.2018 04:00:00 10,3 9,5 8 4 SSW 1030,0 14 -
06.12.2018 03:00:00 10,7 9,8 8 4 SSW 1029,3 20 0,0
06.12.2018 02:00:00 11,1 10,2 9 5 SW 1029,0 20 0,0
06.12.2018 01:00:00 11,6 10,2 9 5 SW 1028,9 20 -
06.12.2018 00:00:00 11,7 10,3 8 4 SSW 1028,9 20 0,0

tt = temperature
td = dewpoint
ff = wind speed
dd = wind direction
ppp = reduced air pressure
vv = visibility
rr = precipitation

Next stations